Location: Brno
(49.2000°N, 16.6333°E)
Time: 05:35:58
(UTC+02:00)

ISS - Visible Passes

Search period start: 23 September 2017 00:00
Search period end: 03 October 2017 00:00
Orbit: 401 x 407 km, 51.6° (Epoch: 23 September)

Date Brightness Start Highest point End Pass type
(mag) Time Alt. Az. Time Alt. Az. Time Alt. Az.
25 Sep -1.5 19:46:12 10° SSE 19:46:46 11° SE 19:46:46 11° SE visible
26 Sep -2.5 20:27:46 10° SSW 20:29:49 27° S 20:29:49 27° S visible
27 Sep -2.3 19:35:59 10° SSW 19:38:33 21° SE 19:39:57 16° ESE visible
27 Sep -1.5 21:11:25 10° WSW 21:12:38 21° WSW 21:12:38 21° WSW visible
28 Sep -3.9 20:19:06 10° SW 20:22:20 61° SSE 20:22:37 58° SE visible
29 Sep -3.2 19:26:56 10° SW 19:30:01 39° SSE 19:32:28 15° E visible
29 Sep -2.1 21:03:08 10° W 21:05:07 32° W 21:05:07 32° W visible
30 Sep -3.9 20:10:41 10° WSW 20:13:57 83° NNW 20:14:51 45° ENE visible
30 Sep -0.3 21:47:24 10° WNW 21:47:30 11° WNW 21:47:30 11° WNW visible
01 Oct -3.8 19:18:17 10° WSW 19:21:33 70° SSE 19:24:31 12° ENE visible
01 Oct -2.3 20:54:53 10° W 20:57:10 37° WNW 20:57:10 37° WNW visible
02 Oct -3.5 20:02:21 10° W 20:05:36 61° N 20:06:45 35° NE visible
02 Oct -0.4 21:39:04 10° WNW 21:39:24 12° WNW 21:39:24 12° WNW visible
